User: anonymous   Login
Location: Centerville
(32.8776°N, 96.6203°W)
Time: 17:03:14
(UTC+00:00)
Language:

Centaur D-1AR AC-39 - Orbit

View from above orbital plane
View from above orbital plane
View from above satellite
View from above satellite

Ground track
Ground track

The orbit data is extracted from the following two-line orbital elements,

1 10025U 77041B   21264.38452323  .00000104  00000-0  99268-3 0  9994
2 10025  21.1521 138.3940 7201935 141.0827 298.0406  2.22716806359381
Epoch (UTC): 21 September 2021 09:13:42
Eccentricity: 0.7201935
inclination: 21.1521°
perigee height: 552 km
apogee height: 36228 km
right ascension of ascending node: 138.3940°
argument of perigee: 141.0827°
revolutions per day: 2.22716806
mean anomaly at epoch: 298.0406°
orbit number at epoch: 35938

The dashed part of the orbit path shows where the satellite is in the earth's shadow,  

DLR